IZ1VWE-3 Weather Reports


Display with metric or nautical units.
time (UTC)temp
F
wind
direction
speed
MPH
gust
MPH
rain 1hr
in
rain 24hr
in
rain mn
in
humidity
%
barometer
mb
20260507215117 57 0.0 0.0 0.00 0.00 0.00 67 1011.7
20260507213117 57 0.0 0.0 0.00 0.00 0.00 66 1011.5
20260507211116 58 0.0 0.0 0.00 0.00 0.00 66 1011.5
20260507205116 58 0.0 0.0 0.00 0.00 0.00 67 1011.6
20260507203116 60 0.0 0.0 0.00 0.00 0.00 65 1011.6
20260507201115 59 0.0 0.0 0.00 0.00 0.00 66 1011.5
20260507195115 59 0.0 0.0 0.00 0.00 0.00 66 1011.3
20260507193115 60 0.0 0.0 0.00 0.00 0.00 65 1011.1
20260507191114 61 0.0 0.0 0.00 0.00 0.00 62 1011.1
20260507185114 65 0.0 0.0 0.00 0.00 0.00 57 1011.0
20260507183114 65 0.0 0.0 0.00 0.00 0.00 57 1011.1
20260507181113 65 0.0 0.0 0.00 0.00 0.00 56 1010.9
20260507175113 65 0.0 0.0 0.00 0.00 0.00 55 1011.1
20260507173113 67 0.0 0.0 0.00 0.00 0.00 54 1011.0
20260507171112 70 0.0 0.0 0.00 0.00 0.00 50 1011.1
20260507165112 73 0.0 0.0 0.00 0.00 0.00 46 1010.8
20260507163112 71 0.0 0.0 0.00 0.00 0.00 49 1010.9
20260507161111 71 0.0 0.0 0.00 0.00 0.00 49 1010.9
20260507155111 72 0.0 0.0 0.00 0.00 0.00 47 1010.9
20260507153111 71 0.0 0.0 0.00 0.00 0.00 47 1011.1
20260507151110 72 0.0 0.0 0.00 0.00 0.00 46 1010.8
20260507145110 72 0.0 0.0 0.00 0.00 0.00 46 1010.9
20260507143110 74 0.0 0.0 0.00 0.00 0.00 45 1011.0
20260507141111 74 0.0 0.0 0.00 0.00 0.00 42 1011.1
20260507135109 74 0.0 0.0 0.00 0.00 0.00 46 1011.1
20260507133109 73 0.0 0.0 0.00 0.00 0.00 46 1011.2
20260507131109 73 0.0 0.0 0.00 0.00 0.00 45 1010.9
20260507125108 73 0.0 0.0 0.00 0.00 0.00 47 1011.1
20260507123108 74 0.0 0.0 0.00 0.00 0.00 45 1011.2
20260507121108 71 0.0 0.0 0.00 0.00 0.00 48 1010.9
20260507115107 71 0.0 0.0 0.00 0.00 0.00 48 1011.1
20260507113107 74 0.0 0.0 0.00 0.00 0.00 44 1011.4
20260507111107 74 0.0 0.0 0.00 0.00 0.00 43 1011.4
20260507105106 72 0.0 0.0 0.00 0.00 0.00 47 1011.1
20260507103106 72 0.0 0.0 0.00 0.00 0.00 47 1011.2
20260507101106 66 0.0 0.0 0.00 0.00 0.00 58 1011.3
20260507095105 73 0.0 0.0 0.00 0.00 0.00 46 1011.3
20260507093105 77 0.0 0.0 0.00 0.00 0.00 42 1011.2
20260507091105 76 0.0 0.0 0.00 0.00 0.00 42 1011.1
20260507085104 76 0.0 0.0 0.00 0.00 0.00 42 1011.0
20260507083104 70 0.0 0.0 0.00 0.00 0.00 48 1010.6
20260507081104 65 0.0 0.0 0.00 0.00 0.00 53 1010.5
20260507075104 65 0.0 0.0 0.00 0.00 0.00 52 1010.4
20260507073103 68 0.0 0.0 0.00 0.00 0.00 48 1010.2
20260507071103 70 0.0 0.0 0.00 0.00 0.00 46 1010.3
20260507065102 70 0.0 0.0 0.00 0.00 0.00 45 1010.0
20260507063102 68 0.0 0.0 0.00 0.00 0.00 49 1010.0
20260507061102 66 0.0 0.0 0.00 0.00 0.00 50 1009.9
20260507055102 64 0.0 0.0 0.00 0.00 0.00 54 1009.7
20260507053101 63 0.0 0.0 0.00 0.00 0.00 55 1009.8
20260507051101 62 0.0 0.0 0.00 0.00 0.00 58 1009.6
20260507045101 61 0.0 0.0 0.00 0.00 0.00 61 1009.3
20260507043100 60 0.0 0.0 0.00 0.00 0.00 63 1009.2
20260507041100 62 0.0 0.0 0.00 0.00 0.00 60 1009.0
20260507035100 61 0.0 0.0 0.00 0.00 0.00 61 1009.0
20260507033059 61 0.0 0.0 0.00 0.00 0.00 60 1009.1
20260507031059 61 0.0 0.0 0.00 0.00 0.00 60 1009.0
20260507025059 61 0.0 0.0 0.00 0.00 0.00 61 1008.9
20260507023102 62 0.0 0.0 0.00 0.00 0.00 60 1009.0
20260507021058 61 0.0 0.0 0.00 0.00 0.00 60 1008.9
20260507015058 62 0.0 0.0 0.00 0.00 0.00 59 1009.0
20260507013058 62 0.0 0.0 0.00 0.00 0.00 59 1008.9
20260507011057 61 0.0 0.0 0.00 0.00 0.00 59 1009.0
20260507005057 61 0.0 0.0 0.00 0.00 0.00 61 1009.1
20260507003056 60 0.0 0.0 0.00 0.00 0.00 61 1008.9
20260507001056 60 0.0 0.0 0.00 0.00 0.00 62 1009.0
20260506235056 61 0.0 0.0 0.00 0.00 0.00 60 1009.0
20260506233056 61 0.0 0.0 0.00 0.00 0.00 60 1009.1
20260506231055 62 0.0 0.0 0.00 0.00 0.00 57 1009.1
20260506225055 62 0.0 0.0 0.00 0.00 0.00 56 1009.1
20260506223055 62 0.0 0.0 0.00 0.00 0.00 57 1009.1
20260506221054 63 0.0 0.0 0.00 0.00 0.00 57 1009.1